Location: Laas
(43.4693°N, 0.3073°E)
Time: 15:37:24
(UTC+00:00)

Cosmos 1340 - Pass Details

Date: 25 October 2020
Orbit: 501 x 504 km, 81.2° (Epoch: 24 November)

Event Time Altitude Azimuth Distance (km) Brightness Sun altitude
Rises 18:37:29 0° 348° (NNW) 2,614 6.4 -18.4°
Reaches altitude 10° 18:39:37 10° 346° (NNW) 1,725 5.5 -18.8°
Maximum altitude 18:43:23 73° 262° (W) 532 2.8 -19.5°
Drops below altitude 10° 18:47:08 10° 177° (S) 1,711 5.3 -20.2°
Sets 18:49:15 0° 176° (S) 2,591 6.2 -20.5°
